Location: Bad+Waldsee
(47.9168°N, 9.7538°E)
Time: 20:38:01
(UTC+02:00)

ISS - Visible Passes

Search period start: 16 May 2021 00:00
Search period end: 26 May 2021 00:00
Orbit: 417 x 422 km, 51.6° (Epoch: 15 May)

Date Brightness Start Highest point End Pass type
(mag) Time Alt. Az. Time Alt. Az. Time Alt. Az.
16 May -2.5 01:17:05 10° WNW 01:20:19 42° N 01:23:34 10° ENE visible
16 May -3.7 02:54:01 10° WNW 02:57:24 78° NNE 03:00:47 10° ESE visible
16 May -2.6 04:31:12 10° W 04:33:57 23° SW 04:36:41 10° SSE visible
16 May -3.8 22:52:21 10° WSW 22:55:43 89° NNW 22:59:06 10° ENE visible
17 May -2.5 00:29:31 10° WNW 00:32:45 42° N 00:36:01 10° ENE visible
17 May -3.3 02:06:33 10° WNW 02:09:55 60° NNE 02:13:16 10° E visible
17 May -3.2 03:43:30 10° WNW 03:46:37 35° SW 03:49:43 10° SSE visible
17 May -3.8 22:04:56 10° SW 22:08:16 65° SSE 22:11:38 10° ENE visible
17 May -2.7 23:41:56 10° W 23:45:12 46° N 23:48:29 10° ENE visible
18 May -2.9 01:19:05 10° WNW 01:22:23 50° N 01:22:53 45° NE visible
18 May -3.0 22:54:21 10° W 22:57:39 54° NNW 23:01:00 10° ENE visible
19 May -2.6 00:31:34 10° WNW 00:34:50 44° N 00:36:27 24° ENE visible
19 May -1.5 02:08:27 10° WNW 02:09:22 17° WNW 02:09:22 17° WNW visible
19 May -3.4 22:06:48 10° WSW 22:10:09 67° NNW 22:13:31 10° ENE visible
19 May -2.5 23:44:02 10° WNW 23:47:16 42° N 23:50:16 12° ENE visible
20 May -2.6 01:20:58 10° WNW 01:23:11 38° WNW 01:23:11 38° WNW visible
20 May -2.5 22:56:28 10° WNW 22:59:42 42° N 23:02:57 10° ENE visible
21 May -3.3 00:33:30 10° WNW 00:36:50 61° NNE 00:37:05 58° NE visible
21 May -2.6 22:08:52 10° W 22:12:08 46° N 22:15:24 10° ENE visible
21 May -2.9 23:46:00 10° WNW 23:49:18 50° NNE 23:51:01 24° ENE visible
22 May -1.6 01:22:52 10° WNW 01:23:58 19° WNW 01:23:58 19° WNW visible
22 May -2.7 22:58:29 10° WNW 23:01:45 44° N 23:05:00 10° E visible
23 May -3.1 00:35:22 10° WNW 00:37:57 49° W 00:37:57 49° W visible
23 May -2.5 22:10:56 10° WNW 22:14:10 42° N 22:17:24 10° ENE visible
23 May -3.7 23:47:52 10° WNW 23:51:15 79° NNE 23:51:57 53° E visible
24 May -3.3 23:00:23 10° WNW 23:03:43 61° NNE 23:05:58 19° E visible
25 May -1.9 00:37:19 10° WNW 00:38:54 22° W 00:38:54 22° W visible
25 May -2.9 22:12:52 10° WNW 22:16:10 50° NNE 22:19:28 10° E visible
25 May -3.5 23:49:44 10° WNW 23:52:57 51° SW 23:52:57 51° SW visible
